Zurück zum Katalog

STARLINK-31988

AktivKommunikationVLEO
NORAD 60601·PAYLOAD·🇺🇸 United States

Gestartet Aug 20, 2024 von Cape Canaveral Space Force Station

Loading…

Nächste Überflüge (nächste 24 Stunden)

TLE

AktuellSource: CelesTrak SupGP

Epoche: Sep 15, 2026, 03:22 UTC

1 60601C 24150U   26258.14076389  .00078740  00000+0  23287-2 0  2583
2 60601  53.1574 143.0201 0000995  76.1176 295.9973 15.34320485    12

Verfolge STARLINK-31988 in Echtzeit mit AllMySat

Download on the App Store